#timestamp,LO_Frequency,Hit,StdDev 
1564347615.6,286046997.0,N
1564347635.4,286046998.7,N
1564347655.3,286046999.6,N
1564347675.1,286046996.7,N
1564347695.9,286046998.7,N
1564347715.7,286046996.5,N
1564347735.5,286046999.1,N
1564347755.4,286046999.4,N
1564347775.2,286046998.5,N
1564347795.1,286047000.3,N
1564347796.0,286047000.3,N
1564347815.8,286047002.1,N
1564347835.6,286047004.4,N
1564347855.5,286047004.4,N
1564347875.3,286047002.4,N
1564347895.1,286047001.5,N
1564347915.9,286046999.8,N
1564347935.7,286047001.5,N
1564347955.6,286047001.5,N
1564347975.4,286047002.8,N
1564347995.2,286047002.8,N
1564348015.1,286047000.2,N
1564348016.0,286047000.2,N
1564348035.8,286046999.9,N
1564348055.7,286047000.3,N
1564348075.5,286047000.9,N
1564348095.3,286047001.2,N
1564348115.2,286046998.1,N
1564348135.0,286047000.9,N
1564348135.9,286047000.9,N
1564348155.8,286047000.9,N
1564348175.6,286047000.5,N
1564348195.4,286047000.8,N
1564348215.3,286046999.9,N
1564348235.1,286047000.2,N
1564348255.8,286047000.0,N
1564348275.7,286047000.9,N
1564348295.5,286047001.2,N
1564348315.4,286047000.8,N
1564348335.2,286047000.7,N
1564348355.0,286046998.3,N
1564348355.9,286046998.3,N
1564348375.9,286046998.7,N
1564348395.7,286046998.3,N
1564348415.5,286046999.0,N
1564348435.4,286046999.3,N
1564348455.2,286046999.2,N
1564348475.1,286046999.6,N
1564348476.0,286046999.6,N
1564348495.8,286046999.5,N
1564348515.6,286046996.5,Y
1564348535.5,286046996.5,P
1564348555.3,286046996.7,N
1564348575.2,286046996.5,N
1564348595.9,286046997.1,N
1564348615.7,286046996.7,N
1564348635.6,286046995.0,Y
1564348655.4,286047001.2,P
1564348675.3,286047001.2,N
1564348695.1,286047001.2,N
1564348696.0,286047001.2,N
1564348715.8,286047001.1,N
1564348735.7,286047000.9,N
1564348755.5,286046998.3,N
1564348775.3,286046998.4,N
1564348795.2,286046998.2,N
1564348815.0,286047000.4,N
1564348815.9,286047000.4,N
1564348835.8,286047001.0,N
1564348855.6,286047000.7,N
1564348875.4,286047000.8,N
1564348895.3,286047000.3,N
1564348915.1,286046998.7,N
1564348935.9,286046998.4,N
1564348955.7,286046998.5,N
1564348975.5,286046998.1,N
1564348995.4,286046998.6,N
1564349015.2,286046999.3,N
1564349035.0,286046997.2,N
1564349035.9,286046997.2,N
1564349055.8,286046999.2,N
1564349075.6,286047001.2,N
1564349095.5,286046999.4,N
1564349115.3,286046999.4,N
1564349135.1,286046997.2,N
1564349155.9,286046996.9,N
1564349175.7,286046998.7,N
1564349195.5,286046999.1,N
1564349215.4,286046999.2,N
1564349235.2,286046998.9,N
1564349255.1,286046997.3,N
1564349256.0,286046997.3,N
1564349275.8,286046997.1,N
1564349295.6,286046995.2,Y
1564349315.5,286046996.6,P
1564349335.3,286046996.7,N
1564349355.2,286046999.4,N
1564349375.9,286046999.1,N
1564349425.8,286046997.5,E
1564349435.7,286046998.7,N
1564349455.5,286047002.4,P
1564349475.4,286047002.6,N
1564349495.2,286047002.1,N
1564349515.0,286047001.9,N
1564349515.9,286047001.9,N
1564349535.8,286047002.6,N
1564349555.6,286047001.3,N
1564349575.5,286047002.5,N
1564349595.3,286047002.2,N
1564349615.1,286047002.7,N
1564349635.9,286047000.1,N
1564349655.7,286047000.4,N
1564349675.5,286046999.7,N
1564349695.4,286047001.5,N
1564349715.2,286046999.7,N
1564349735.1,286047000.2,N
1564349736.0,286047000.2,N
1564349755.8,286047002.8,N
1564349775.6,286047001.8,N
1564349795.5,286046999.8,N
1564349815.3,286047002.7,N
1564349835.2,286047004.3,Y
1564349855.9,286047000.2,P
1564349875.7,286047002.4,P
1564349895.6,286047002.5,N
1564349915.4,286047002.6,N
1564349935.3,286047002.8,Y
1564349955.1,286047001.2,P
1564349975.8,286046999.8,N
1564349995.7,286046999.7,N
1564350015.5,286047002.3,N
1564350035.4,286047002.2,N
1564350055.2,286046999.7,N
1564350075.0,286047000.1,N
1564350075.9,286047000.1,N
1564350095.8,286046998.1,N
1564350115.6,286047001.0,N
1564350135.4,286047000.3,N
1564350155.3,286047000.3,N
1564350175.1,286047001.2,N
1564350195.9,286047000.6,N
1564350215.7,286046998.6,N
1564350235.5,286047000.8,N
1564350255.4,286046999.0,N
1564350275.2,286046998.3,N
1564350295.1,286046998.1,N
1564350296.0,286046998.1,N
1564350315.8,286047002.6,N
1564350335.6,286047000.8,N
1564350355.5,286047001.0,N
1564350375.3,286047000.8,N
1564350395.2,286047000.9,N
1564350415.9,286046998.2,N
1564350435.7,286047000.1,N
1564350455.6,286047000.3,N
1564350475.4,286046998.1,N
1564350495.2,286047001.0,N
1564350515.1,286046999.4,N
1564350516.0,286046999.4,N
1564350535.8,286046998.5,N
1564350555.7,286047000.0,N
1564350575.5,286047002.5,N
1564350595.3,286047000.3,N
1564350615.2,286046998.1,N
1564350635.0,286046998.1,N
1564350635.9,286046998.1,N
1564350655.8,286047000.3,N
1564350675.6,286047000.2,N
1564350695.4,286046999.7,N
1564350715.3,286046999.8,N
1564350735.1,286047000.7,N
1564350755.9,286046999.8,N
1564350805.7,286047004.1,E
1564350815.6,286047002.7,N
1564350835.5,286046996.9,P
1564350855.3,286046997.2,N
1564350875.2,286046997.3,N
1564350895.0,286046999.5,N
1564350895.9,286046999.5,N
1564350915.7,286046999.2,N
1564350935.6,286046996.9,N
1564350955.4,286046996.8,N
1564350975.3,286046996.6,N
1564350995.1,286046996.8,N
1564351015.8,286046998.4,N
1564351035.7,286046999.2,N
1564351055.5,286046999.1,N
1564351075.4,286046998.6,N
1564351095.2,286047001.2,N
1564351115.0,286046998.7,N
1564351115.9,286046998.7,N
1564351135.8,286046998.4,N
1564351155.6,286046998.4,N
1564351175.7,286047000.7,N
1564351195.7,286047001.1,N
